Location: ????????
(54.6123°N, 39.2099°E)
Time: 03:32:57
(UTC+00:00)

Cosmos 2360 Rocket - Pass Details

Date: 19 May 2025
Orbit: 834 x 842 km, 71.0° (Epoch: 14 June)

Event Time Altitude Azimuth Distance (km) Brightness Sun altitude
Rises 21:26:47 0° 325° (NW) 3,396 6.2 -15.4°
Reaches altitude 10° 21:29:17 10° 321° (NW) 2,457 5.3 -15.4°
Maximum altitude 21:34:43 52° 246° (WSW) 1,037 2.5 -15.3°
Enters shadow 21:37:56 24° 181° (S) 1,680 3.1 -15.3°
